Weather History for EGNH - August, 2013

Change the Weather History Date:

Monday, August 12, 2013

  Actual Average Record
Temperature  
Mean Temperature 60 °F -  
Max Temperature 63 °F 63 °F 77 °F (2004)
Min Temperature 57 °F 53 °F 44 °F (2015)
Degree Days  
Heating Degree Days 5    
Growing Degree Days 10 (Base 50)    
Moisture  
Dew Point 51 °F    
Average Humidity 71    
Maximum Humidity 82    
Minimum Humidity 58    
Precipitation  
Precipitation 0.00 in - - ()
Sea Level Pressure  
Sea Level Pressure 30.00 in    
Wind  
Wind Speed 17 mph ()    
Max Wind Speed 21 mph    
Max Gust Speed -    
Visibility 6.2 miles    
Events Rain    
Averages and records for this station are not official NWS values.
T = Trace of Precipitation, MM = Missing Value Source: Averaged Metar Reports

Daily Weather History Graph

Daily Weather History Graph

Search for Another Location

Airport or City:

Trip Planner

Search our weather history database for the weather conditions in past years. The results will help you decide how hot, cold, wet, or windy it might be!

Date:

Astronomy

Aug. 12, 2013 Rise Set
Actual Time 5:45 AM BST 8:47 PM BST
Civil Twilight 5:04 AM BST 9:28 PM BST
Nautical Twilight 4:10 AM BST 10:22 PM BST
Astronomical Twilight 2:57 AM BST 11:32 PM BST
Moon 12:21 PM BST (8/12) 10:27 PM BST (8/12)
Length of Visible Light 16h 23m
Length of Day
15h 01m
Waxing Crescent, 29% of the Moon is Illuminated
Aug 12
Waxing Crescent
Aug 14
First Quarter
Aug 21
Full
Aug 28
Last Quarter
Sep 5
New

Hourly Weather History & Observations

Time (BST) Temp. Dew Point Humidity Pressure Visibility Wind Dir Wind Speed Gust Speed Precip Events Conditions
12:50 AM 59 °F 50 °F 64%  in - West 19.6 mph - -  
3:50 AM 58 °F 49 °F 65%  in - West 18.4 mph - -  
6:20 AM 59.0 °F 50.0 °F 72% 29.95 in 6.2 mi West 18.4 mph - N/A   Scattered Clouds
6:50 AM 58 °F 51 °F 70%  in - West 18.4 mph - -  
6:50 AM 59.0 °F 51.8 °F 77% 29.95 in 6.2 mi West 17.3 mph - N/A   Scattered Clouds
7:20 AM 59.0 °F 51.8 °F 77% 29.95 in 6.2 mi West 16.1 mph - N/A   Scattered Clouds
7:50 AM 59.0 °F 50.0 °F 72% 29.95 in 6.2 mi West 18.4 mph - N/A   Scattered Clouds
8:20 AM 59.0 °F 51.8 °F 77% 29.95 in 6.2 mi West 18.4 mph - N/A   Scattered Clouds
8:50 AM 59.0 °F 51.8 °F 77% 29.98 in 6.2 mi West 19.6 mph - N/A   Scattered Clouds
9:20 AM 59.0 °F 51.8 °F 77% 29.98 in 6.2 mi West 18.4 mph - N/A   Scattered Clouds
9:50 AM 60 °F 53 °F 70%  in - West 20.7 mph - -  
9:50 AM 59.0 °F 51.8 °F 77% 29.98 in 6.2 mi West 19.6 mph - N/A   Scattered Clouds
10:20 AM 59.0 °F 53.6 °F 82% 29.98 in 6.2 mi West 20.7 mph - N/A   Scattered Clouds
10:50 AM 60.8 °F 51.8 °F 72% 29.98 in 6.2 mi West 18.4 mph - N/A   Scattered Clouds
11:20 AM 60.8 °F 51.8 °F 72% 29.98 in 6.2 mi West 17.3 mph - N/A   Scattered Clouds
11:50 AM 60.8 °F 51.8 °F 72% 29.98 in 6.2 mi West 18.4 mph - N/A   Scattered Clouds
12:20 PM 60.8 °F 51.8 °F 72% 29.98 in 6.2 mi West 18.4 mph - N/A   Scattered Clouds
12:50 PM 61 °F 52 °F 65%  in - West 19.6 mph - -  
12:50 PM 60.8 °F 51.8 °F 72% 30.01 in 6.2 mi West 18.4 mph - N/A   Scattered Clouds
1:20 PM 60.8 °F 51.8 °F 72% 30.01 in 6.2 mi West 19.6 mph - N/A   Scattered Clouds
1:50 PM 60.8 °F 53.6 °F 77% 30.01 in 6.2 mi West 20.7 mph - N/A   Scattered Clouds
2:20 PM 62.6 °F 51.8 °F 68% 30.01 in 6.2 mi West 19.6 mph - N/A   Scattered Clouds
2:50 PM 62.6 °F 51.8 °F 68% 30.01 in 6.2 mi West 18.4 mph - N/A   Scattered Clouds
3:20 PM 62.6 °F 51.8 °F 68% 30.01 in 6.2 mi West 19.6 mph - N/A   Scattered Clouds
3:50 PM 63 °F 52 °F 58%  in - West 20.7 mph - -  
3:50 PM 62.6 °F 50.0 °F 63% 30.01 in 6.2 mi West 19.6 mph - N/A Rain Light Rain Showers
4:50 PM 62.6 °F 51.8 °F 68% 30.01 in 6.2 mi West 19.6 mph - N/A   Scattered Clouds
5:20 PM 62.6 °F 50.0 °F 63% 30.01 in 6.2 mi West 19.6 mph - N/A   Scattered Clouds
5:50 PM 60.8 °F 50.0 °F 68% 30.01 in 6.2 mi West 17.3 mph - N/A   Scattered Clouds
6:20 PM 60.8 °F 50.0 °F 68% 30.04 in 6.2 mi West 16.1 mph - N/A   Scattered Clouds
6:50 PM 60.8 °F 51.8 °F 72% 30.04 in 6.2 mi West 17.3 mph - N/A   Scattered Clouds
7:20 PM 59.0 °F 51.8 °F 77% 30.04 in 6.2 mi West 17.3 mph - N/A   Scattered Clouds
7:50 PM 59.0 °F 51.8 °F 77% 30.04 in 6.2 mi WNW 17.3 mph - N/A   Scattered Clouds
8:20 PM 59.0 °F 51.8 °F 77% 30.04 in 6.2 mi WNW 19.6 mph - N/A Rain Light Rain Showers
8:50 PM 59.0 °F 50.0 °F 72% 30.04 in 6.2 mi WNW 20.7 mph - N/A   Scattered Clouds
9:20 PM 59.0 °F 50.0 °F 72% 30.06 in 6.2 mi WNW 17.3 mph - N/A   Scattered Clouds
9:50 PM 59.0 °F 50.0 °F 72% 30.06 in 6.2 mi NW 17.3 mph - N/A   Scattered Clouds